| time (UTC) | temp C | wind direction | speed KPH | gust KPH | rain 1hr cm | rain 24hr cm | rain mn cm | humidity % | barometer mb |
| 20260903041029 | 30 | 215 | 3.2 | 9.7 | 0.00 | 0.00 | 0.00 | 30 | 1017.6 |
| 20260903040529 | 30 | 226 | 3.2 | 9.7 | 0.00 | 0.00 | 0.00 | 31 | 1017.6 |
| 20260903040048 | 30 | 234 | 0.0 | 3.2 | 0.00 | 0.00 | 0.00 | 32 | 1017.5 |
| 20260903035528 | 30 | 234 | 0.0 | 1.6 | 0.00 | 0.00 | 0.00 | 32 | 1017.5 |
| 20260903035028 | 30 | 234 | 0.0 | 1.6 | 0.00 | 0.00 | 0.00 | 32 | 1017.4 |
| 20260903034528 | 30 | 234 | 0.0 | 1.6 | 0.00 | 0.00 | 0.00 | 32 | 1017.4 |
| 20260903034028 | 30 | 234 | 0.0 | 1.6 | 0.00 | 0.00 | 0.00 | 33 | 1017.4 |
| 20260903033527 | 30 | 234 | 0.0 | 1.6 | 0.00 | 0.00 | 0.00 | 32 | 1017.4 |
| 20260903033031 | 30 | 234 | 0.0 | 1.6 | 0.00 | 0.00 | 0.00 | 32 | 1017.4 |
| 20260903032526 | 30 | 234 | 0.0 | 1.6 | 0.00 | 0.00 | 0.00 | 32 | 1017.2 |
| 20260903032025 | 30 | 234 | 0.0 | 0.0 | 0.00 | 0.00 | 0.00 | 33 | 1017.2 |
| 20260903031531 | 30 | 234 | 0.0 | 0.0 | 0.00 | 0.00 | 0.00 | 33 | 1017.1 |
| 20260903031023 | 30 | 234 | 0.0 | 0.0 | 0.00 | 0.00 | 0.00 | 33 | 1017.1 |
| 20260903030522 | 30 | 234 | 0.0 | 0.0 | 0.00 | 0.00 | 0.00 | 33 | 1017.0 |
| 20260903030023 | 30 | 234 | 0.0 | 1.6 | 0.00 | 0.00 | 0.00 | 32 | 1016.9 |
| 20260903025523 | 30 | 234 | 0.0 | 1.6 | 0.00 | 0.00 | 0.00 | 31 | 1016.8 |
| 20260903025022 | 31 | 234 | 0.0 | 1.6 | 0.00 | 0.00 | 0.00 | 30 | 1016.8 |
| 20260903024522 | 31 | 234 | 0.0 | 1.6 | 0.00 | 0.00 | 0.00 | 30 | 1016.7 |
| 20260903024022 | 31 | 234 | 0.0 | 1.6 | 0.00 | 0.00 | 0.00 | 29 | 1016.6 |
| 20260903023521 | 31 | 234 | 0.0 | 3.2 | 0.00 | 0.00 | 0.00 | 29 | 1016.6 |
| 20260903023033 | 31 | 234 | 0.0 | 3.2 | 0.00 | 0.00 | 0.00 | 28 | 1016.6 |
| 20260903022522 | 31 | 234 | 0.0 | 6.4 | 0.00 | 0.00 | 0.00 | 27 | 1016.5 |
| 20260903022021 | 31 | 234 | 1.6 | 6.4 | 0.00 | 0.00 | 0.00 | 27 | 1016.5 |
| 20260903021521 | 31 | 248 | 1.6 | 6.4 | 0.00 | 0.00 | 0.00 | 26 | 1016.5 |
| 20260903021022 | 31 | 255 | 1.6 | 6.4 | 0.00 | 0.00 | 0.00 | 27 | 1016.4 |
| 20260903020520 | 32 | 255 | 1.6 | 8.0 | 0.00 | 0.00 | 0.00 | 26 | 1016.4 |
| 20260903020021 | 32 | 261 | 3.2 | 9.7 | 0.00 | 0.00 | 0.00 | 26 | 1016.4 |
| 20260903015520 | 32 | 267 | 6.4 | 9.7 | 0.00 | 0.00 | 0.00 | 26 | 1016.4 |
| 20260903015020 | 32 | 259 | 3.2 | 8.0 | 0.00 | 0.00 | 0.00 | 27 | 1016.3 |
| 20260903014522 | 32 | 260 | 1.6 | 9.7 | 0.00 | 0.00 | 0.00 | 27 | 1016.3 |
| 20260903014020 | 32 | 250 | 4.8 | 9.7 | 0.00 | 0.00 | 0.00 | 26 | 1016.1 |
| 20260903013520 | 32 | 276 | 3.2 | 9.7 | 0.00 | 0.00 | 0.00 | 26 | 1016.2 |
| 20260903013020 | 32 | 248 | 3.2 | 9.7 | 0.00 | 0.00 | 0.00 | 26 | 1016.2 |
| 20260903012519 | 32 | 252 | 4.8 | 9.7 | 0.00 | 0.00 | 0.00 | 25 | 1016.2 |
| 20260903012020 | 32 | 223 | 3.2 | 9.7 | 0.00 | 0.00 | 0.00 | 25 | 1016.3 |
| 20260903011519 | 32 | 234 | 1.6 | 11.3 | 0.00 | 0.00 | 0.00 | 26 | 1016.2 |
| 20260903011020 | 32 | 261 | 4.8 | 11.3 | 0.00 | 0.00 | 0.00 | 26 | 1016.2 |
| 20260903010519 | 32 | 271 | 1.6 | 9.7 | 0.00 | 0.00 | 0.00 | 26 | 1016.2 |
| 20260903010037 | 32 | 249 | 4.8 | 11.3 | 0.00 | 0.00 | 0.00 | 25 | 1016.1 |
| 20260903005522 | 32 | 242 | 4.8 | 11.3 | 0.00 | 0.00 | 0.00 | 25 | 1016.1 |
| 20260903005021 | 33 | 212 | 4.8 | 11.3 | 0.00 | 0.00 | 0.00 | 25 | 1016.1 |
| 20260903004519 | 33 | 306 | 6.4 | 11.3 | 0.00 | 0.00 | 0.00 | 24 | 1016.1 |
| 20260903004018 | 33 | 305 | 4.8 | 11.3 | 0.00 | 0.00 | 0.00 | 24 | 1016.1 |
| 20260903003518 | 33 | 329 | 3.2 | 11.3 | 0.00 | 0.00 | 0.00 | 24 | 1016.1 |
| 20260903003018 | 33 | 223 | 3.2 | 11.3 | 0.00 | 0.00 | 0.00 | 24 | 1016.1 |
| 20260903002519 | 33 | 230 | 4.8 | 11.3 | 0.00 | 0.00 | 0.00 | 24 | 1016.2 |
| 20260903002017 | 33 | 343 | 4.8 | 11.3 | 0.00 | 0.00 | 0.00 | 24 | 1016.2 |
| 20260903001528 | 33 | 297 | 6.4 | 12.9 | 0.00 | 0.00 | 0.00 | 24 | 1016.2 |
| 20260903001017 | 33 | 239 | 4.8 | 16.1 | 0.00 | 0.00 | 0.00 | 24 | 1016.3 |
| 20260903000518 | 33 | 252 | 9.7 | 16.1 | 0.00 | 0.00 | 0.00 | 24 | 1016.3 |
| 20260903000016 | 34 | 224 | 3.2 | 11.3 | 0.00 | 0.00 | 0.00 | 24 | 1016.3 |
| 20260902235516 | 34 | 254 | 3.2 | 12.9 | 0.00 | 0.00 | 0.00 | 24 | 1016.3 |
| 20260902235018 | 34 | 304 | 8.0 | 12.9 | 0.00 | 0.00 | 0.00 | 24 | 1016.3 |
| 20260902234521 | 34 | 266 | 4.8 | 9.7 | 0.00 | 0.00 | 0.00 | 25 | 1016.3 |
| 20260902234017 | 34 | 290 | 6.4 | 9.7 | 0.00 | 0.00 | 0.00 | 25 | 1016.3 |
| 20260902233515 | 34 | 242 | 3.2 | 11.3 | 0.00 | 0.00 | 0.00 | 25 | 1016.4 |
| 20260902233014 | 34 | 234 | 6.4 | 12.9 | 0.00 | 0.00 | 0.00 | 24 | 1016.5 |
| 20260902232513 | 34 | 230 | 8.0 | 17.7 | 0.00 | 0.00 | 0.00 | 25 | 1016.5 |
| 20260902232012 | 34 | 310 | 8.0 | 17.7 | 0.00 | 0.00 | 0.00 | 25 | 1016.5 |
| 20260902231529 | 34 | 244 | 9.7 | 14.5 | 0.00 | 0.00 | 0.00 | 25 | 1016.6 |
| 20260902231012 | 34 | 303 | 8.0 | 14.5 | 0.00 | 0.00 | 0.00 | 25 | 1016.7 |
| 20260902230511 | 34 | 316 | 4.8 | 11.3 | 0.00 | 0.00 | 0.00 | 25 | 1016.7 |
| 20260902230012 | 34 | 242 | 3.2 | 17.7 | 0.00 | 0.00 | 0.00 | 24 | 1016.7 |
| 20260902225510 | 34 | 292 | 8.0 | 16.1 | 0.00 | 0.00 | 0.00 | 25 | 1016.8 |
| 20260902225012 | 34 | 223 | 6.4 | 14.5 | 0.00 | 0.00 | 0.00 | 25 | 1016.8 |
| 20260902224511 | 34 | 213 | 8.0 | 16.1 | 0.00 | 0.00 | 0.00 | 25 | 1016.9 |
| 20260902224011 | 35 | 257 | 11.3 | 19.3 | 0.00 | 0.00 | 0.00 | 24 | 1016.9 |
| 20260902223509 | 35 | 236 | 11.3 | 20.9 | 0.00 | 0.00 | 0.00 | 23 | 1016.9 |
| 20260902223012 | 35 | 230 | 9.7 | 22.5 | 0.00 | 0.00 | 0.00 | 24 | 1016.9 |
| 20260902222509 | 35 | 326 | 6.4 | 14.5 | 0.00 | 0.00 | 0.00 | 24 | 1016.9 |
| 20260902222008 | 35 | 224 | 8.0 | 19.3 | 0.00 | 0.00 | 0.00 | 24 | 1016.8 |
| 20260902221507 | 35 | 301 | 8.0 | 19.3 | 0.00 | 0.00 | 0.00 | 24 | 1016.9 |
| 20260902221010 | 35 | 305 | 8.0 | 14.5 | 0.00 | 0.00 | 0.00 | 24 | 1017.0 |
| 20260902220507 | 35 | 281 | 6.4 | 12.9 | 0.00 | 0.00 | 0.00 | 24 | 1017.0 |
| 20260902220011 | 35 | 299 | 6.4 | 17.7 | 0.00 | 0.00 | 0.00 | 24 | 1017.0 |
| 20260902215506 | 35 | 263 | 8.0 | 17.7 | 0.00 | 0.00 | 0.00 | 24 | 1017.0 |
| 20260902215009 | 35 | 225 | 9.7 | 17.7 | 0.00 | 0.00 | 0.00 | 24 | 1017.1 |
| 20260902214505 | 34 | 149 | 4.8 | 17.7 | 0.00 | 0.00 | 0.00 | 25 | 1017.1 |
| 20260902214005 | 34 | 157 | 8.0 | 16.1 | 0.00 | 0.00 | 0.00 | 25 | 1017.2 |
| 20260902213504 | 35 | 215 | 4.8 | 17.7 | 0.00 | 0.00 | 0.00 | 24 | 1017.2 |
| 20260902213006 | 35 | 196 | 8.0 | 17.7 | 0.00 | 0.00 | 0.00 | 25 | 1017.3 |
| 20260902212504 | 35 | 314 | 3.2 | 17.7 | 0.00 | 0.00 | 0.00 | 24 | 1017.4 |
| 20260902212006 | 35 | 192 | 8.0 | 17.7 | 0.00 | 0.00 | 0.00 | 24 | 1017.4 |
| 20260902211502 | 35 | 182 | 8.0 | 16.1 | 0.00 | 0.00 | 0.00 | 23 | 1017.5 |
| 20260902211002 | 35 | 237 | 9.7 | 16.1 | 0.00 | 0.00 | 0.00 | 24 | 1017.5 |
| 20260902210502 | 35 | 214 | 9.7 | 17.7 | 0.00 | 0.00 | 0.00 | 24 | 1017.7 |
| 20260902205559 | 35 | 206 | 9.7 | 20.9 | 0.00 | 0.00 | 0.00 | 24 | 1017.7 |
| 20260902205101 | 34 | 257 | 1.6 | 12.9 | 0.00 | 0.00 | 0.00 | 25 | 1017.8 |
| 20260902204558 | 34 | 204 | 4.8 | 11.3 | 0.00 | 0.00 | 0.00 | 25 | 1017.8 |
| 20260902204056 | 34 | 263 | 6.4 | 14.5 | 0.00 | 0.00 | 0.00 | 25 | 1018.0 |
| 20260902203556 | 34 | 243 | 4.8 | 14.5 | 0.00 | 0.00 | 0.00 | 24 | 1018.1 |
| 20260902203055 | 35 | 246 | 6.4 | 14.5 | 0.00 | 0.00 | 0.00 | 25 | 1018.1 |
| 20260902202556 | 35 | 158 | 3.2 | 16.1 | 0.00 | 0.00 | 0.00 | 25 | 1018.2 |
| 20260902202054 | 34 | 207 | 8.0 | 16.1 | 0.00 | 0.00 | 0.00 | 25 | 1018.4 |
| 20260902201553 | 35 | 304 | 9.7 | 14.5 | 0.00 | 0.00 | 0.00 | 24 | 1018.4 |
| 20260902201052 | 34 | 119 | 0.0 | 14.5 | 0.00 | 0.00 | 0.00 | 26 | 1018.5 |
| 20260902200551 | 34 | 164 | 4.8 | 14.5 | 0.00 | 0.00 | 0.00 | 25 | 1018.6 |
| 20260902200051 | 33 | 131 | 4.8 | 12.9 | 0.00 | 0.00 | 0.00 | 26 | 1018.7 |
| 20260902195550 | 34 | 313 | 3.2 | 12.9 | 0.00 | 0.00 | 0.00 | 26 | 1018.7 |
| 20260902195047 | 34 | 212 | 6.4 | 16.1 | 0.00 | 0.00 | 0.00 | 25 | 1018.8 |
| 20260902194547 | 34 | 220 | 8.0 | 16.1 | 0.00 | 0.00 | 0.00 | 25 | 1018.9 |
| 20260902194046 | 34 | 140 | 4.8 | 14.5 | 0.00 | 0.00 | 0.00 | 26 | 1018.9 |
| 20260902193545 | 34 | 163 | 4.8 | 14.5 | 0.00 | 0.00 | 0.00 | 26 | 1019.0 |
| 20260902193045 | 33 | 85 | 3.2 | 20.9 | 0.00 | 0.00 | 0.00 | 27 | 1019.0 |
| 20260902192544 | 33 | 117 | 9.7 | 20.9 | 0.00 | 0.00 | 0.00 | 27 | 1019.1 |
| 20260902192049 | 33 | 173 | 8.0 | 17.7 | 0.00 | 0.00 | 0.00 | 27 | 1019.1 |
| 20260902191543 | 33 | 325 | 1.6 | 16.1 | 0.00 | 0.00 | 0.00 | 28 | 1019.2 |
| 20260902191042 | 33 | 153 | 8.0 | 16.1 | 0.00 | 0.00 | 0.00 | 28 | 1019.3 |
| 20260902190542 | 33 | 130 | 6.4 | 16.1 | 0.00 | 0.00 | 0.00 | 28 | 1019.3 |
| 20260902190043 | 33 | 167 | 8.0 | 14.5 | 0.00 | 0.00 | 0.00 | 27 | 1019.4 |
| 20260902185541 | 33 | 300 | 3.2 | 17.7 | 0.00 | 0.00 | 0.00 | 28 | 1019.4 |
| 20260902185043 | 32 | 217 | 6.4 | 17.7 | 0.00 | 0.00 | 0.00 | 29 | 1019.5 |
| 20260902184539 | 32 | 171 | 1.6 | 12.9 | 0.00 | 0.00 | 0.00 | 29 | 1019.6 |
| 20260902184038 | 32 | 173 | 4.8 | 16.1 | 0.00 | 0.00 | 0.00 | 29 | 1019.8 |
| 20260902183538 | 32 | 144 | 4.8 | 16.1 | 0.00 | 0.00 | 0.00 | 29 | 1019.8 |
| 20260902183037 | 32 | 195 | 3.2 | 16.1 | 0.00 | 0.00 | 0.00 | 29 | 1019.9 |
| 20260902182535 | 32 | 150 | 8.0 | 12.9 | 0.00 | 0.00 | 0.00 | 30 | 1019.9 |
| 20260902182037 | 32 | 269 | 4.8 | 14.5 | 0.00 | 0.00 | 0.00 | 30 | 1020.1 |
| 20260902181534 | 32 | 193 | 8.0 | 16.1 | 0.00 | 0.00 | 0.00 | 29 | 1020.1 |
| 20260902181034 | 32 | 260 | 1.6 | 16.1 | 0.00 | 0.00 | 0.00 | 31 | 1020.1 |
| 20260902180533 | 32 | 223 | 9.7 | 16.1 | 0.00 | 0.00 | 0.00 | 31 | 1020.3 |
| 20260902180031 | 31 | 269 | 4.8 | 14.5 | 0.00 | 0.00 | 0.00 | 30 | 1020.3 |
| 20260902175530 | 32 | 234 | 9.7 | 14.5 | 0.00 | 0.00 | 0.00 | 31 | 1020.3 |
| 20260902175028 | 31 | 171 | 6.4 | 14.5 | 0.00 | 0.00 | 0.00 | 32 | 1020.3 |
| 20260902174532 | 31 | 276 | 6.4 | 12.9 | 0.00 | 0.00 | 0.00 | 32 | 1020.3 |
| 20260902174025 | 31 | 244 | 6.4 | 12.9 | 0.00 | 0.00 | 0.00 | 32 | 1020.4 |
| 20260902173524 | 31 | 247 | 6.4 | 16.1 | 0.00 | 0.00 | 0.00 | 32 | 1020.4 |
| 20260902173032 | 31 | 238 | 9.7 | 16.1 | 0.00 | 0.00 | 0.00 | 33 | 1020.5 |
| 20260902172524 | 31 | 224 | 6.4 | 14.5 | 0.00 | 0.00 | 0.00 | 34 | 1020.5 |
| 20260902172020 | 30 | 143 | 3.2 | 16.1 | 0.00 | 0.00 | 0.00 | 35 | 1020.5 |
| 20260902171519 | 30 | 208 | 8.0 | 16.1 | 0.00 | 0.00 | 0.00 | 35 | 1020.6 |
| 20260902171018 | 30 | 172 | 4.8 | 12.9 | 0.00 | 0.00 | 0.00 | 36 | 1020.6 |
| 20260902170521 | 30 | 202 | 6.4 | 16.1 | 0.00 | 0.00 | 0.00 | 35 | 1020.7 |
| 20260902170018 | 30 | 207 | 9.7 | 16.1 | 0.00 | 0.00 | 0.00 | 35 | 1020.6 |
| 20260902165513 | 30 | 234 | 6.4 | 12.9 | 0.00 | 0.00 | 0.00 | 35 | 1020.6 |
| 20260902165014 | 30 | 217 | 8.0 | 14.5 | 0.00 | 0.00 | 0.00 | 36 | 1020.7 |
| 20260902164510 | 29 | 152 | 8.0 | 14.5 | 0.00 | 0.00 | 0.00 | 36 | 1020.6 |
| 20260902164009 | 29 | 207 | 6.4 | 14.5 | 0.00 | 0.00 | 0.00 | 35 | 1020.7 |
| 20260902163508 | 29 | 169 | 8.0 | 14.5 | 0.00 | 0.00 | 0.00 | 36 | 1020.6 |
| 20260902163006 | 28 | 263 | 9.7 | 14.5 | 0.00 | 0.00 | 0.00 | 36 | 1020.7 |
| 20260902162504 | 28 | 209 | 4.8 | 11.3 | 0.00 | 0.00 | 0.00 | 38 | 1020.6 |
| 20260902162005 | 28 | 166 | 4.8 | 11.3 | 0.00 | 0.00 | 0.00 | 38 | 1020.6 |
| 20260902161509 | 28 | 154 | 4.8 | 11.3 | 0.00 | 0.00 | 0.00 | 37 | 1020.6 |
| 20260902161004 | 27 | 215 | 6.4 | 11.3 | 0.00 | 0.00 | 0.00 | 39 | 1020.6 |
| 20260902160559 | 27 | 182 | 4.8 | 12.9 | 0.00 | 0.00 | 0.00 | 40 | 1020.6 |
| 20260902160058 | 27 | 276 | 4.8 | 12.9 | 0.00 | 0.00 | 0.00 | 40 | 1020.6 |
| 20260902155557 | 27 | 224 | 6.4 | 12.9 | 0.00 | 0.00 | 0.00 | 40 | 1020.6 |
| 20260902155056 | 27 | 160 | 6.4 | 12.9 | 0.00 | 0.00 | 0.00 | 40 | 1020.7 |
| 20260902154555 | 26 | 222 | 6.4 | 12.9 | 0.00 | 0.00 | 0.00 | 41 | 1020.7 |
| 20260902154052 | 26 | 219 | 6.4 | 12.9 | 0.00 | 0.00 | 0.00 | 41 | 1020.6 |
| 20260902153552 | 26 | 192 | 3.2 | 12.9 | 0.00 | 0.00 | 0.00 | 42 | 1020.6 |
| 20260902153049 | 26 | 170 | 8.0 | 12.9 | 0.00 | 0.00 | 0.00 | 42 | 1020.7 |
| 20260902152548 | 26 | 150 | 4.8 | 14.5 | 0.00 | 0.00 | 0.00 | 43 | 1020.6 |
| 20260902152046 | 26 | 182 | 4.8 | 14.5 | 0.00 | 0.00 | 0.00 | 43 | 1020.6 |
| 20260902151545 | 26 | 224 | 6.4 | 14.5 | 0.00 | 0.00 | 0.00 | 44 | 1020.6 |
| 20260902151044 | 25 | 171 | 8.0 | 16.1 | 0.00 | 0.00 | 0.00 | 44 | 1020.5 |
| 20260902150543 | 25 | 180 | 9.7 | 16.1 | 0.00 | 0.00 | 0.00 | 44 | 1020.5 |
| 20260902150042 | 25 | 144 | 4.8 | 12.9 | 0.00 | 0.00 | 0.00 | 45 | 1020.5 |
| 20260902145540 | 25 | 218 | 6.4 | 12.9 | 0.00 | 0.00 | 0.00 | 45 | 1020.5 |
| 20260902145038 | 25 | 159 | 6.4 | 14.5 | 0.00 | 0.00 | 0.00 | 45 | 1020.5 |
| 20260902144538 | 25 | 194 | 6.4 | 14.5 | 0.00 | 0.00 | 0.00 | 45 | 1020.4 |
| 20260902144035 | 24 | 147 | 8.0 | 14.5 | 0.00 | 0.00 | 0.00 | 44 | 1020.4 |
| 20260902143534 | 24 | 161 | 4.8 | 14.5 | 0.00 | 0.00 | 0.00 | 45 | 1020.4 |
| 20260902143032 | 24 | 154 | 6.4 | 11.3 | 0.00 | 0.00 | 0.00 | 46 | 1020.4 |
| 20260902142532 | 24 | 161 | 1.6 | 11.3 | 0.00 | 0.00 | 0.00 | 46 | 1020.3 |
| 20260902142030 | 23 | 184 | 1.6 | 12.9 | 0.00 | 0.00 | 0.00 | 47 | 1020.3 |
| 20260902141529 | 23 | 166 | 8.0 | 12.9 | 0.00 | 0.00 | 0.00 | 46 | 1020.3 |
| 20260902141026 | 23 | 151 | 3.2 | 9.7 | 0.00 | 0.00 | 0.00 | 47 | 1020.1 |
| 20260902140526 | 23 | 188 | 3.2 | 9.7 | 0.00 | 0.00 | 0.00 | 48 | 1020.2 |
| 20260902140032 | 23 | 177 | 3.2 | 9.7 | 0.00 | 0.00 | 0.00 | 48 | 1020.1 |
| 20260902135524 | 23 | 209 | 1.6 | 6.4 | 0.00 | 0.00 | 0.00 | 48 | 1020.1 |
| 20260902135023 | 23 | 209 | 1.6 | 6.4 | 0.00 | 0.00 | 0.00 | 49 | 1020.0 |
| 20260902134523 | 22 | 209 | 1.6 | 8.0 | 0.00 | 0.00 | 0.00 | 50 | 1020.0 |
| 20260902134021 | 22 | 209 | 3.2 | 8.0 | 0.00 | 0.00 | 0.00 | 50 | 1019.9 |
| 20260902133521 | 22 | 209 | 0.0 | 3.2 | 0.00 | 0.00 | 0.00 | 51 | 1019.9 |
| 20260902133020 | 21 | 209 | 0.0 | 3.2 | 0.00 | 0.00 | 0.00 | 52 | 1019.8 |
| 20260902132526 | 21 | 209 | 0.0 | 1.6 | 0.00 | 0.00 | 0.00 | 52 | 1019.8 |
| 20260902132019 | 21 | 209 | 0.0 | 1.6 | 0.00 | 0.00 | 0.00 | 51 | 1019.8 |
| 20260902131528 | 21 | 209 | 0.0 | 3.2 | 0.00 | 0.00 | 0.00 | 53 | 1019.7 |
| 20260902131017 | 21 | 209 | 0.0 | 3.2 | 0.00 | 0.00 | 0.00 | 52 | 1019.7 |
| 20260902130516 | 21 | 209 | 1.6 | 3.2 | 0.00 | 0.00 | 0.00 | 51 | 1019.6 |
| 20260902130015 | 21 | 209 | 0.0 | 1.6 | 0.00 | 0.00 | 0.00 | 52 | 1019.5 |
| 20260902125517 | 21 | 209 | 0.0 | 0.0 | 0.00 | 0.00 | 0.00 | 51 | 1019.5 |
| 20260902125015 | 21 | 209 | 0.0 | 3.2 | 0.00 | 0.00 | 0.00 | 51 | 1019.5 |
| 20260902124525 | 21 | 209 | 0.0 | 3.2 | 0.00 | 0.00 | 0.00 | 49 | 1019.4 |
| 20260902124013 | 21 | 209 | 0.0 | 1.6 | 0.00 | 0.00 | 0.00 | 50 | 1019.4 |
| 20260902123511 | 21 | 209 | 0.0 | 3.2 | 0.00 | 0.00 | 0.00 | 50 | 1019.3 |
| 20260902123010 | 21 | 209 | 0.0 | 3.2 | 0.00 | 0.00 | 0.00 | 51 | 1019.3 |
| 20260902122512 | 21 | 209 | 0.0 | 0.0 | 0.00 | 0.00 | 0.00 | 51 | 1019.3 |
| 20260902122008 | 21 | 209 | 0.0 | 0.0 | 0.00 | 0.00 | 0.00 | 50 | 1019.2 |
| 20260902121508 | 21 | 209 | 0.0 | 8.0 | 0.00 | 0.00 | 0.00 | 49 | 1019.2 |
| 20260902121008 | 22 | 209 | 0.0 | 8.0 | 0.00 | 0.00 | 0.00 | 48 | 1019.3 |
| 20260902120507 | 21 | 209 | 0.0 | 6.4 | 0.00 | 0.00 | 0.00 | 49 | 1019.2 |
| 20260902120007 | 21 | 209 | 0.0 | 3.2 | 0.00 | 0.00 | 0.00 | 49 | 1019.2 |
| 20260902115506 | 21 | 209 | 0.0 | 3.2 | 0.00 | 0.00 | 0.00 | 50 | 1019.2 |
| 20260902115006 | 21 | 209 | 0.0 | 1.6 | 0.00 | 0.00 | 0.00 | 50 | 1019.2 |
| 20260902114515 | 21 | 209 | 0.0 | 3.2 | 0.00 | 0.00 | 0.00 | 50 | 1019.1 |
| 20260902114005 | 21 | 209 | 0.0 | 3.2 | 0.00 | 0.00 | 0.00 | 50 | 1019.1 |
| 20260902113504 | 21 | 209 | 0.0 | 3.2 | 0.00 | 0.00 | 0.00 | 50 | 1019.0 |
| 20260902113002 | 22 | 209 | 0.0 | 1.6 | 0.00 | 0.00 | 0.00 | 50 | 1019.0 |
| 20260902112502 | 21 | 209 | 0.0 | 1.6 | 0.00 | 0.00 | 0.00 | 50 | 1019.0 |
| 20260902112004 | 21 | 209 | 0.0 | 3.2 | 0.00 | 0.00 | 0.00 | 51 | 1018.9 |
| 20260902111502 | 21 | 209 | 0.0 | 3.2 | 0.00 | 0.00 | 0.00 | 50 | 1019.0 |
| 20260902111001 | 22 | 209 | 0.0 | 1.6 | 0.00 | 0.00 | 0.00 | 50 | 1019.0 |
| 20260902110500 | 22 | 209 | 0.0 | 1.6 | 0.00 | 0.00 | 0.00 | 50 | 1019.0 |
| 20260902110001 | 22 | 209 | 0.0 | 3.2 | 0.00 | 0.00 | 0.00 | 50 | 1019.0 |
| 20260902105604 | 22 | 209 | 0.0 | 3.2 | 0.00 | 0.00 | 0.00 | 51 | 1018.9 |
| 20260902105100 | 22 | 209 | 0.0 | 1.6 | 0.00 | 0.00 | 0.00 | 50 | 1019.0 |
| 20260902104603 | 22 | 209 | 0.0 | 1.6 | 0.00 | 0.00 | 0.00 | 50 | 1019.0 |
| 20260902104059 | 22 | 209 | 0.0 | 1.6 | 0.00 | 0.00 | 0.00 | 50 | 1019.0 |
| 20260902103604 | 22 | 209 | 0.0 | 1.6 | 0.00 | 0.00 | 0.00 | 49 | 1019.1 |
| 20260902103118 | 22 | 209 | 0.0 | 1.6 | 0.00 | 0.00 | 0.00 | 49 | 1019.1 |
| 20260902102558 | 22 | 209 | 0.0 | 3.2 | 0.00 | 0.00 | 0.00 | 48 | 1019.1 |
| 20260902102058 | 22 | 209 | 0.0 | 3.2 | 0.00 | 0.00 | 0.00 | 48 | 1019.1 |
| 20260902101557 | 22 | 209 | 0.0 | 1.6 | 0.00 | 0.00 | 0.00 | 48 | 1019.0 |
| 20260902101057 | 22 | 209 | 0.0 | 0.0 | 0.00 | 0.00 | 0.00 | 48 | 1019.0 |
| 20260902100557 | 22 | 209 | 0.0 | 0.0 | 0.00 | 0.00 | 0.00 | 48 | 1018.9 |
| 20260902100057 | 22 | 209 | 0.0 | 0.0 | 0.00 | 0.00 | 0.00 | 47 | 1018.9 |
| 20260902095559 | 22 | 209 | 0.0 | 0.0 | 0.00 | 0.00 | 0.00 | 47 | 1019.0 |
| 20260902095056 | 22 | 209 | 0.0 | 3.2 | 0.00 | 0.00 | 0.00 | 48 | 1019.0 |
| 20260902094600 | 22 | 209 | 0.0 | 3.2 | 0.00 | 0.00 | 0.00 | 49 | 1018.9 |
| 20260902094056 | 22 | 209 | 0.0 | 1.6 | 0.00 | 0.00 | 0.00 | 49 | 1019.0 |
| 20260902093555 | 22 | 209 | 0.0 | 0.0 | 0.00 | 0.00 | 0.00 | 48 | 1018.9 |
| 20260902093103 | 22 | 209 | 0.0 | 0.0 | 0.00 | 0.00 | 0.00 | 48 | 1018.9 |
| 20260902092554 | 22 | 209 | 0.0 | 0.0 | 0.00 | 0.00 | 0.00 | 47 | 1018.9 |
| 20260902092057 | 22 | 209 | 0.0 | 0.0 | 0.00 | 0.00 | 0.00 | 47 | 1018.8 |
| 20260902091556 | 22 | 209 | 0.0 | 0.0 | 0.00 | 0.00 | 0.00 | 47 | 1018.9 |
| 20260902091055 | 22 | 209 | 0.0 | 0.0 | 0.00 | 0.00 | 0.00 | 46 | 1018.8 |
| 20260902090556 | 23 | 209 | 0.0 | 1.6 | 0.00 | 0.00 | 0.00 | 46 | 1018.8 |
| 20260902090059 | 23 | 209 | 0.0 | 1.6 | 0.00 | 0.00 | 0.00 | 46 | 1018.8 |
| 20260902085554 | 23 | 209 | 0.0 | 0.0 | 0.00 | 0.00 | 0.00 | 46 | 1018.9 |
| 20260902085050 | 23 | 209 | 0.0 | 1.6 | 0.00 | 0.00 | 0.00 | 45 | 1019.0 |
| 20260902084550 | 23 | 209 | 0.0 | 1.6 | 0.00 | 0.00 | 0.00 | 45 | 1019.0 |
| 20260902084051 | 23 | 209 | 0.0 | 0.0 | 0.00 | 0.00 | 0.00 | 45 | 1018.9 |
| 20260902083549 | 23 | 209 | 0.0 | 0.0 | 0.00 | 0.00 | 0.00 | 44 | 1019.0 |
| 20260902083047 | 23 | 209 | 0.0 | 0.0 | 0.00 | 0.00 | 0.00 | 45 | 1019.0 |
| 20260902082547 | 23 | 209 | 0.0 | 1.6 | 0.00 | 0.00 | 0.00 | 44 | 1019.0 |
| 20260902082047 | 24 | 209 | 0.0 | 1.6 | 0.00 | 0.00 | 0.00 | 43 | 1019.0 |
| 20260902081546 | 24 | 209 | 0.0 | 3.2 | 0.00 | 0.00 | 0.00 | 42 | 1019.1 |
| 20260902081045 | 24 | 209 | 0.0 | 3.2 | 0.00 | 0.00 | 0.00 | 44 | 1019.1 |
| 20260902080545 | 24 | 209 | 0.0 | 3.2 | 0.00 | 0.00 | 0.00 | 45 | 1019.1 |
| 20260902080045 | 24 | 209 | 0.0 | 1.6 | 0.00 | 0.00 | 0.00 | 46 | 1019.1 |
| 20260902075545 | 24 | 209 | 0.0 | 3.2 | 0.00 | 0.00 | 0.00 | 46 | 1019.1 |
| 20260902075044 | 24 | 229 | 0.0 | 3.2 | 0.00 | 0.00 | 0.00 | 46 | 1019.1 |
| 20260902074555 | 24 | 102 | 0.0 | 1.6 | 0.00 | 0.00 | 0.00 | 43 | 1019.0 |
| 20260902074042 | 24 | 102 | 0.0 | 1.6 | 0.00 | 0.00 | 0.00 | 45 | 1019.2 |
| 20260902073541 | 24 | 102 | 0.0 | 1.6 | 0.00 | 0.00 | 0.00 | 44 | 1019.2 |
| 20260902073042 | 24 | 102 | 0.0 | 1.6 | 0.00 | 0.00 | 0.00 | 43 | 1019.2 |
| 20260902072543 | 25 | 102 | 0.0 | 1.6 | 0.00 | 0.00 | 0.00 | 43 | 1019.2 |
| 20260902072040 | 25 | 102 | 0.0 | 1.6 | 0.00 | 0.00 | 0.00 | 42 | 1019.3 |
| 20260902071540 | 25 | 102 | 0.0 | 1.6 | 0.00 | 0.00 | 0.00 | 42 | 1019.2 |
| 20260902071040 | 25 | 102 | 0.0 | 1.6 | 0.00 | 0.00 | 0.00 | 42 | 1019.3 |
| 20260902070539 | 25 | 102 | 0.0 | 6.4 | 0.00 | 0.00 | 0.00 | 42 | 1019.2 |
| 20260902070039 | 25 | 102 | 0.0 | 6.4 | 0.00 | 0.00 | 0.00 | 42 | 1019.1 |
| 20260902065538 | 25 | 259 | 0.0 | 1.6 | 0.00 | 0.00 | 0.00 | 43 | 1019.1 |
| 20260902065042 | 25 | 259 | 0.0 | 1.6 | 0.00 | 0.00 | 0.00 | 44 | 1019.1 |
| 20260902064540 | 25 | 259 | 0.0 | 1.6 | 0.00 | 0.00 | 0.00 | 44 | 1019.1 |
| 20260902064038 | 25 | 259 | 0.0 | 1.6 | 0.00 | 0.00 | 0.00 | 44 | 1019.0 |
| 20260902063536 | 25 | 259 | 0.0 | 0.0 | 0.00 | 0.00 | 0.00 | 44 | 1019.0 |
| 20260902063036 | 25 | 259 | 0.0 | 1.6 | 0.00 | 0.00 | 0.00 | 43 | 1019.0 |
| 20260902062534 | 26 | 259 | 0.0 | 3.2 | 0.00 | 0.00 | 0.00 | 41 | 1019.0 |
| 20260902062033 | 26 | 259 | 0.0 | 3.2 | 0.00 | 0.00 | 0.00 | 41 | 1019.1 |
| 20260902061541 | 25 | 259 | 0.0 | 1.6 | 0.00 | 0.00 | 0.00 | 43 | 1019.1 |
| 20260902061033 | 25 | 259 | 0.0 | 0.0 | 0.00 | 0.00 | 0.00 | 42 | 1019.1 |
| 20260902060530 | 26 | 259 | 0.0 | 3.2 | 0.00 | 0.00 | 0.00 | 41 | 1019.1 |
| 20260902060045 | 26 | 259 | 0.0 | 3.2 | 0.00 | 0.00 | 0.00 | 40 | 1019.2 |
| 20260902055530 | 26 | 259 | 0.0 | 3.2 | 0.00 | 0.00 | 0.00 | 40 | 1019.2 |
| 20260902055029 | 26 | 259 | 0.0 | 3.2 | 0.00 | 0.00 | 0.00 | 39 | 1019.2 |
| 20260902054538 | 26 | 259 | 0.0 | 3.2 | 0.00 | 0.00 | 0.00 | 39 | 1019.1 |
| 20260902054034 | 26 | 259 | 0.0 | 3.2 | 0.00 | 0.00 | 0.00 | 39 | 1019.1 |
| 20260902053528 | 26 | 247 | 0.0 | 1.6 | 0.00 | 0.00 | 0.00 | 41 | 1019.2 |
| 20260902053028 | 26 | 247 | 0.0 | 0.0 | 0.00 | 0.00 | 0.00 | 41 | 1019.1 |
| 20260902052527 | 26 | 247 | 0.0 | 0.0 | 0.00 | 0.00 | 0.00 | 40 | 1019.1 |
| 20260902052033 | 26 | 247 | 0.0 | 0.0 | 0.00 | 0.00 | 0.00 | 39 | 1019.2 |
| 20260902051527 | 26 | 247 | 0.0 | 1.6 | 0.00 | 0.00 | 0.00 | 41 | 1019.1 |
| 20260902051033 | 27 | 247 | 0.0 | 1.6 | 0.00 | 0.00 | 0.00 | 40 | 1019.2 |
| 20260902050528 | 27 | 247 | 0.0 | 1.6 | 0.00 | 0.00 | 0.00 | 41 | 1019.1 |
| 20260902050028 | 27 | 247 | 0.0 | 1.6 | 0.00 | 0.00 | 0.00 | 41 | 1019.2 |
| 20260902045527 | 27 | 247 | 0.0 | 6.4 | 0.00 | 0.00 | 0.00 | 41 | 1019.2 |
| 20260902045030 | 27 | 247 | 1.6 | 6.4 | 0.00 | 0.00 | 0.00 | 41 | 1019.2 |
| 20260902044527 | 26 | 247 | 0.0 | 6.4 | 0.00 | 0.00 | 0.00 | 42 | 1019.2 |
| 20260902044027 | 26 | 247 | 0.0 | 1.6 | 0.00 | 0.00 | 0.00 | 38 | 1019.1 |
| 20260902043527 | 26 | 247 | 0.0 | 1.6 | 0.00 | 0.00 | 0.00 | 40 | 1019.0 |
| 20260902043026 | 26 | 247 | 0.0 | 0.0 | 0.00 | 0.00 | 0.00 | 40 | 1019.0 |
| 20260902042526 | 26 | 247 | 0.0 | 0.0 | 0.00 | 0.00 | 0.00 | 39 | 1018.9 |
| 20260902042027 | 26 | 247 | 0.0 | 0.0 | 0.00 | 0.00 | 0.00 | 39 | 1018.9 |
| 20260902041533 | 26 | 247 | 0.0 | 0.0 | 0.00 | 0.00 | 0.00 | 38 | 1018.9 |